This is the latest recevied weather packets stored in our database for station/object W7JFO-3. If no packets are shown the sender has not sent any weather packets the latest 10 day(s).
| Time | Temp. | Humidity | Pressure | Rain* | Wind** | Luminosity | Snow |
|---|---|---|---|---|---|---|---|
| 1777497417 | 13.89° C | 40% | 1021.8 hPa | 0 mm | - | 842 W/m² | - |
| 1777496518 | 12.78° C | 39% | 1021.9 hPa | 0 mm | - | 837 W/m² | - |
| 1777495618 | 12.22° C | 36% | 1022 hPa | 0 mm | - | 754 W/m² | - |
| 1777494718 | 12.22° C | 48% | 1021.9 hPa | 0 mm | - | 752 W/m² | - |
| 1777493818 | 11.67° C | 55% | 1022 hPa | 0 mm | - | 188 W/m² | - |
| 1777492918 | 11.11° C | 59% | 1022 hPa | 0 mm | - | 882 W/m² | - |
| 1777492018 | 11.11° C | 62% | 1022 hPa | 0 mm | - | 846 W/m² | - |
| 1777491118 | 10.56° C | 62% | 1022 hPa | 0 mm | - | 714 W/m² | - |
| 1777490218 | 10.56° C | 64% | 1022.1 hPa | 0 mm | - | 728 W/m² | - |
| 1777489318 | 10° C | 61% | 1022.1 hPa | 0 mm | - | 851 W/m² | - |
| 1777488418 | 9.44° C | 69% | 1022.3 hPa | 0 mm | - | 863 W/m² | - |
| 1777487518 | 9.44° C | 68% | 1022.5 hPa | 0 mm | - | 867 W/m² | - |
| 1777486618 | 8.89° C | 70% | 1022.6 hPa | 0 mm | - | 830 W/m² | - |
| 1777485718 | 8.89° C | 70% | 1022.7 hPa | 0 mm | - | 814 W/m² | - |
| 1777484818 | 7.78° C | 74% | 1022.7 hPa | 0 mm | - | 793 W/m² | - |
| 1777483918 | 8.33° C | 72% | 1022.6 hPa | 0 mm | - | 770 W/m² | - |
| 1777483018 | 7.22° C | 75% | 1022.7 hPa | 0 mm | - | 745 W/m² | - |
| 1777482118 | 6.67° C | 76% | 1022.7 hPa | 0 mm | - | 717 W/m² | - |
| 1777481218 | 6.11° C | 76% | 1022.7 hPa | 0 mm | - | 687 W/m² | - |
| 1777480318 | 6.11° C | 77% | 1022.7 hPa | 0 mm | - | 654 W/m² | - |
| 1777479418 | 5.56° C | 80% | 1022.7 hPa | 0 mm | - | 613 W/m² | - |
| 1777478518 | 5° C | 84% | 1022.8 hPa | 0 mm | - | 524 W/m² | - |
| 1777477618 | 4.44° C | 84% | 1022.8 hPa | 0 mm | - | 434 W/m² | - |
| 1777476718 | 4.44° C | 84% | 1022.8 hPa | 0 mm | - | 127 W/m² | - |
| 1777475818 | 5° C | 84% | 1022.7 hPa | 0 mm | - | 352 W/m² | - |
* Rain latest hour (hover to see other rain measurements)
** Current wind speed in m/s (hover to see current wind gust speed)